TimeAST,TemperatureF,Dew PointF,Humidity,Sea Level PressureIn,VisibilityMPH,Wind Direction,Wind SpeedMPH,Gust SpeedMPH,PrecipitationIn,Events,Conditions,WindDirDegrees,DateUTC
12:00 AM,84,41,13,29.43,6,WNW,9.2,,,,,300,2013-06-12 21:00:00
12:00 AM,84.2,41.0,22,29.42,-9999.0,WNW,9.2,-,N/A,,Clear,300,2013-06-12 21:00:00
1:00 AM,84.2,37.4,19,29.42,-9999.0,WNW,10.4,-,N/A,,Clear,300,2013-06-12 22:00:00
2:00 AM,80.6,33.8,18,29.42,5.0,NW,12.7,-,N/A,,Clear,310,2013-06-12 23:00:00
3:00 AM,84,32,8,29.42,4,WNW,11.5,,,,Widespread Dust,300,2013-06-13 00:00:00
3:00 AM,84.2,32.0,15,29.42,4.3,WNW,11.5,-,N/A,,Clear,300,2013-06-13 00:00:00
4:00 AM,84.2,32.0,15,29.42,4.3,WNW,11.5,-,N/A,,Clear,300,2013-06-13 01:00:00
5:00 AM,82.4,33.8,17,29.42,3.1,WNW,11.5,-,N/A,,Unknown,300,2013-06-13 02:00:00
6:00 AM,84,32,8,29.45,4,NW,11.5,,,,Widespread Dust,310,2013-06-13 03:00:00
6:00 AM,84.2,32.0,15,29.44,3.7,NW,11.5,-,N/A,,Unknown,310,2013-06-13 03:00:00
7:00 AM,87.8,35.6,16,29.44,4.3,WNW,12.7,-,N/A,,Unknown,290,2013-06-13 04:00:00
8:00 AM,93.2,35.6,13,29.44,4.3,NW,10.4,-,N/A,,Clear,320,2013-06-13 05:00:00
9:00 AM,99,36,5,29.46,6,NW,11.5,,,,Widespread Dust,320,2013-06-13 06:00:00
9:00 AM,98.6,35.6,11,29.44,5.6,NW,11.5,-,N/A,,Unknown,320,2013-06-13 06:00:00
10:00 AM,102.2,32.0,9,29.44,5.6,North,16.1,28.8,N/A,,Unknown,350,2013-06-13 07:00:00
11:00 AM,104.0,32.0,8,29.44,5.6,North,16.1,-,N/A,,Unknown,350,2013-06-13 08:00:00
12:00 PM,105,36,4,29.44,6,North,17.3,,,,Clear,350,2013-06-13 09:00:00
12:00 PM,105.8,35.6,9,29.44,-9999.0,North,19.6,-,N/A,,Clear,350,2013-06-13 09:00:00
1:00 PM,105.8,37.4,10,29.42,-9999.0,North,19.6,-,N/A,,Clear,350,2013-06-13 10:00:00
2:00 PM,104.0,41.0,12,29.42,-9999.0,North,17.3,-,N/A,,Clear,350,2013-06-13 11:00:00
3:00 PM,104,37,5,29.42,6,North,18.4,,,,Clear,0,2013-06-13 12:00:00
3:00 PM,104.0,37.4,10,29.42,-9999.0,North,18.4,-,N/A,,Clear,360,2013-06-13 12:00:00
4:00 PM,102.2,39.2,11,29.39,-9999.0,NNE,17.3,-,N/A,,Clear,30,2013-06-13 13:00:00
9:00 PM,88,39,10,29.42,6,West,8.1,,,,,280,2013-06-13 18:00:00
9:00 PM,87.8,39.2,18,29.42,-9999.0,West,8.1,-,N/A,,Clear,280,2013-06-13 18:00:00
10:00 PM,86.0,41.0,20,29.42,-9999.0,WNW,11.5,-,N/A,,Clear,300,2013-06-13 19:00:00
11:00 PM,84.2,39.2,20,29.42,-9999.0,West,12.7,-,N/A,,Clear,280,2013-06-13 20:00:00